Location: Kershaw
(34.5481°N, 80.5823°W)
Time: 20:07:31
(UTC+00:00)

Vanguard 1 Rocket - Pass Details

Date: 02 October 2022
Orbit: 650 x 4225 km, 34.3° (Epoch: 01 December)

Event Time Altitude Azimuth Distance (km) Brightness Sun altitude
Rises 04:02:24 0° 271° (W) 6,977 12.2 -55.1°
Reaches altitude 10° 04:07:51 10° 272° (W) 5,391 11.5 -55.6°
Enters shadow 04:13:37 26° 272° (W) 3,602 10.4 -56.2°
Maximum altitude 04:21:45 88° 184° (S) 1,526 - -56.9°
Drops below altitude 10° 04:28:37 10° 96° (E) 2,832 - -57.4°
Sets 04:30:39 0° 96° (E) 3,555 - -57.6°
